Stündliche Wetter La Baule-Escoublac

Heute, 18 Mai, Dienstag

Zeit Temperatur Niederschläge Wind Luftdruck Luftfeuchtigkeit
00:00 +9°C° 0 mm 5 m/S 762 mmHg 84%
01:00 +9°C° 0 mm 5 m/S 762 mmHg 85%
02:00 +8°C° 0 mm 4 m/S 762 mmHg 86%
03:00 +8°C° 0 mm 4 m/S 762 mmHg 87%
04:00 +10°C° 0.1 mm 3 m/S 762 mmHg 85%
05:00 +10°C° 0.1 mm 3 m/S 762 mmHg 84%
06:00 +11°C° 0.1 mm 3 m/S 762 mmHg 83%
07:00 +12°C° 0.1 mm 4 m/S 762 mmHg 77%
08:00 +13°C° 0.1 mm 4 m/S 762 mmHg 71%
09:00 +14°C° 0.1 mm 4 m/S 762 mmHg 65%
10:00 +14°C° 0 mm 4 m/S 762 mmHg 61%
11:00 +15°C° 0 mm 5 m/S 763 mmHg 58%
12:00 +15°C° 0 mm 5 m/S 763 mmHg 55%
13:00 +15°C° 0 mm 5 m/S 763 mmHg 56%
14:00 +15°C° 0 mm 5 m/S 763 mmHg 57%
15:00 +15°C° 0 mm 6 m/S 763 mmHg 57%
16:00 +14°C° 0 mm 6 m/S 763 mmHg 62%
17:00 +14°C° 0 mm 6 m/S 763 mmHg 67%
18:00 +13°C° 0 mm 6 m/S 764 mmHg 71%
19:00 +11°C° 0 mm 6 m/S 764 mmHg 76%
20:00 +10°C° 0 mm 6 m/S 764 mmHg 80%
21:00 +10°C° 0 mm 6 m/S 764 mmHg 84%
22:00 +10°C° 0.4 mm 6 m/S 764 mmHg 86%
23:00 +10°C° 0.4 mm 7 m/S 764 mmHg 87%

Morgen, 19 Mai, Mittwoch

Zeit Temperatur Niederschläge Wind Luftdruck Luftfeuchtigkeit
00:00 +10°C° 0.4 mm 7 m/S 764 mmHg 89%
01:00 +9°C° 0.1 mm 7 m/S 764 mmHg 90%
02:00 +9°C° 0.1 mm 6 m/S 764 mmHg 91%
03:00 +9°C° 0.1 mm 6 m/S 764 mmHg 91%
04:00 +9°C° 0 mm 6 m/S 764 mmHg 91%
05:00 +9°C° 0 mm 6 m/S 764 mmHg 91%
06:00 +9°C° 0 mm 5 m/S 765 mmHg 90%
07:00 +10°C° 0 mm 6 m/S 765 mmHg 82%
08:00 +11°C° 0 mm 6 m/S 766 mmHg 75%
09:00 +12°C° 0 mm 7 m/S 766 mmHg 67%
10:00 +14°C° 0 mm 7 m/S 766 mmHg 64%
11:00 +15°C° 0 mm 7 m/S 766 mmHg 60%
12:00 +15°C° 0 mm 7 m/S 766 mmHg 57%
13:00 +15°C° 0.1 mm 8 m/S 767 mmHg 60%
14:00 +15°C° 0.1 mm 8 m/S 767 mmHg 62%
15:00 +15°C° 0.1 mm 9 m/S 767 mmHg 65%
16:00 +13°C° 0 mm 8 m/S 767 mmHg 67%
17:00 +13°C° 0 mm 8 m/S 767 mmHg 70%
18:00 +12°C° 0 mm 8 m/S 767 mmHg 72%
19:00 +12°C° 0 mm 7 m/S 768 mmHg 74%
20:00 +11°C° 0 mm 6 m/S 768 mmHg 76%
21:00 +10°C° 0 mm 6 m/S 768 mmHg 78%
22:00 +10°C° 0 mm 5 m/S 768 mmHg 80%
23:00 +10°C° 0 mm 4 m/S 768 mmHg 83%

übermorgen, 20 Mai, Donnerstag

Zeit Temperatur Niederschläge Wind Luftdruck Luftfeuchtigkeit
00:00 +10°C° 0 mm 3 m/S 768 mmHg 86%
01:00 +9°C° 0 mm 3 m/S 768 mmHg 87%
02:00 +9°C° 0 mm 2 m/S 768 mmHg 87%
03:00 +9°C° 0 mm 2 m/S 768 mmHg 88%
04:00 +10°C° 0 mm 2 m/S 767 mmHg 87%
05:00 +10°C° 0 mm 3 m/S 767 mmHg 85%
06:00 +11°C° 0 mm 4 m/S 767 mmHg 84%
07:00 +12°C° 0 mm 5 m/S 767 mmHg 79%
08:00 +13°C° 0 mm 6 m/S 767 mmHg 74%
09:00 +14°C° 0 mm 7 m/S 767 mmHg 69%
10:00 +14°C° 0 mm 7 m/S 766 mmHg 67%
11:00 +14°C° 0 mm 7 m/S 766 mmHg 65%
12:00 +14°C° 0 mm 7 m/S 766 mmHg 63%
13:00 +14°C° 0 mm 7 m/S 765 mmHg 64%
14:00 +13°C° 0 mm 8 m/S 765 mmHg 66%
15:00 +13°C° 0 mm 8 m/S 765 mmHg 67%
16:00 +14°C° 0.1 mm 7 m/S 764 mmHg 72%
17:00 +12°C° 0.1 mm 7 m/S 764 mmHg 77%
18:00 +13°C° 0.1 mm 6 m/S 763 mmHg 81%
19:00 +13°C° 0.2 mm 6 m/S 763 mmHg 83%
20:00 +11°C° 0.2 mm 6 m/S 762 mmHg 84%
21:00 +11°C° 0.2 mm 6 m/S 762 mmHg 85%
22:00 +11°C° 0.9 mm 6 m/S 762 mmHg 88%
23:00 +11°C° 0.9 mm 7 m/S 761 mmHg 91%

21 Mai, Freitag

Zeit Temperatur Niederschläge Wind Luftdruck Luftfeuchtigkeit
00:00 +11°C° 0.9 mm 7 m/S 760 mmHg 94%
01:00 +11°C° 0.2 mm 6 m/S 760 mmHg 92%
02:00 +11°C° 0.2 mm 6 m/S 759 mmHg 91%
03:00 +12°C° 0.2 mm 5 m/S 759 mmHg 89%
04:00 +10°C° 0.3 mm 6 m/S 759 mmHg 88%
05:00 +10°C° 0.3 mm 6 m/S 759 mmHg 88%
06:00 +10°C° 0.3 mm 7 m/S 758 mmHg 87%
07:00 +10°C° 0.1 mm 7 m/S 758 mmHg 84%
08:00 +10°C° 0.1 mm 7 m/S 758 mmHg 82%
09:00 +11°C° 0.1 mm 8 m/S 758 mmHg 79%
10:00 +11°C° 0.1 mm 8 m/S 758 mmHg 78%
11:00 +12°C° 0.1 mm 9 m/S 757 mmHg 76%
12:00 +12°C° 0.1 mm 9 m/S 757 mmHg 75%
13:00 +12°C° 0.1 mm 9 m/S 757 mmHg 75%
14:00 +12°C° 0.1 mm 10 m/S 756 mmHg 74%
15:00 +12°C° 0.1 mm 10 m/S 756 mmHg 74%
16:00 +12°C° 0.1 mm 10 m/S 756 mmHg 75%
17:00 +12°C° 0.1 mm 10 m/S 756 mmHg 75%
18:00 +12°C° 0.1 mm 10 m/S 755 mmHg 76%
19:00 +11°C° 0 mm 10 m/S 755 mmHg 77%
20:00 +11°C° 0 mm 11 m/S 756 mmHg 77%
21:00 +9°C° 0 mm 11 m/S 756 mmHg 78%
22:00 +9°C° 0.1 mm 11 m/S 755 mmHg 78%
23:00 +9°C° 0.1 mm 12 m/S 755 mmHg 78%

22 Mai, Samstag

Zeit Temperatur Niederschläge Wind Luftdruck Luftfeuchtigkeit
00:00 +9°C° 0.1 mm 12 m/S 755 mmHg 79%
01:00 +9°C° 0.3 mm 12 m/S 755 mmHg 81%
02:00 +9°C° 0.3 mm 12 m/S 755 mmHg 84%
03:00 +9°C° 0.3 mm 12 m/S 754 mmHg 86%
04:00 +9°C° 0.5 mm 11 m/S 755 mmHg 86%
05:00 +9°C° 0.5 mm 10 m/S 755 mmHg 85%
06:00 +9°C° 0.5 mm 10 m/S 755 mmHg 84%
07:00 +11°C° 0.3 mm 9 m/S 755 mmHg 81%
08:00 +11°C° 0.3 mm 9 m/S 756 mmHg 78%
09:00 +12°C° 0.3 mm 9 m/S 756 mmHg 75%
10:00 +12°C° 0.1 mm 8 m/S 757 mmHg 70%
11:00 +13°C° 0.1 mm 8 m/S 757 mmHg 65%
12:00 +15°C° 0.1 mm 8 m/S 757 mmHg 60%
13:00 +13°C° 0.1 mm 8 m/S 758 mmHg 60%
14:00 +13°C° 0.1 mm 8 m/S 758 mmHg 60%
15:00 +13°C° 0.1 mm 8 m/S 758 mmHg 60%
16:00 +14°C° 0 mm 7 m/S 758 mmHg 63%
17:00 +12°C° 0 mm 7 m/S 759 mmHg 65%
18:00 +12°C° 0 mm 7 m/S 759 mmHg 68%
19:00 +10°C° 0 mm 7 m/S 760 mmHg 69%
20:00 +9°C° 0 mm 6 m/S 760 mmHg 71%
21:00 +8°C° 0 mm 6 m/S 761 mmHg 73%
22:00 +7°C° 0 mm 5 m/S 761 mmHg 74%
23:00 +7°C° 0 mm 5 m/S 761 mmHg 75%

23 Mai, Sonntag

Zeit Temperatur Niederschläge Wind Luftdruck Luftfeuchtigkeit
00:00 +6°C° 0 mm 4 m/S 761 mmHg 77%
01:00 +6°C° 0 mm 4 m/S 761 mmHg 78%
02:00 +6°C° 0 mm 4 m/S 761 mmHg 80%
03:00 +6°C° 0 mm 4 m/S 762 mmHg 81%
04:00 +7°C° 0.1 mm 4 m/S 762 mmHg 81%
05:00 +8°C° 0.1 mm 4 m/S 762 mmHg 82%
06:00 +8°C° 0.1 mm 4 m/S 762 mmHg 82%
07:00 +10°C° 0.1 mm 5 m/S 762 mmHg 75%
08:00 +11°C° 0.1 mm 6 m/S 763 mmHg 69%
09:00 +12°C° 0.1 mm 7 m/S 763 mmHg 62%
10:00 +12°C° 0.1 mm 8 m/S 763 mmHg 61%
11:00 +12°C° 0.1 mm 8 m/S 763 mmHg 60%
12:00 +13°C° 0.1 mm 9 m/S 763 mmHg 59%
13:00 +13°C° 0 mm 9 m/S 763 mmHg 59%
14:00 +13°C° 0 mm 10 m/S 763 mmHg 59%
15:00 +13°C° 0 mm 10 m/S 763 mmHg 59%
16:00 +12°C° 0 mm 10 m/S 763 mmHg 63%
17:00 +12°C° 0 mm 10 m/S 764 mmHg 67%
18:00 +12°C° 0 mm 10 m/S 764 mmHg 72%
19:00 +11°C° 0 mm 9 m/S 764 mmHg 75%
20:00 +11°C° 0 mm 9 m/S 765 mmHg 78%
21:00 +10°C° 0 mm 9 m/S 765 mmHg 81%
22:00 +10°C° 0 mm 9 m/S 765 mmHg 83%
23:00 +10°C° 0 mm 8 m/S 765 mmHg 84%
Mehr zeigen

Wir brauchen deine Erlaubnis

Meteoprog und unser Service Anbieter werden persönliche Daten aufbewahren, so wie Cookies, Geräte Bezeichnung oder ähnliche Technologien von deinem Gerät und Prozess, so wie Persönliche Daten Inhalte und Werbungen, genauso wie social Media und den Verkehr zu analysieren.

  • Aufbewahrung und/oder Zugang zu deiner Geräte Informationen.

    Cookies, Geräte Bezeichnung oder andere Informationen, können aufbewahrt oder Zugang zu deinem Gerät erhalten, für den Grund, der oben angegeben wird.

  • Personalisierte Werbung und Inhalte, Messungen, Einblick in das Publikum und Produkt Entwicklung.

    Werbungen und Inhalte können personalisiert werden, basierend auf ein Profil. Mehr Daten können besser personalisierte Werbungen und Inhalte hinzufügen. Werbung und Inhalte können gezeigt und gemessen werden. Einblicke über das Publikum, welche die Werbung gesehen haben und den Inhalt, können abgeleitet werden. So wie Daten können genutzt werden, um es zu verbessern oder die Benutzer Erfahrung zu verbessern das System und die Software.

Wenn du “Ich stimme zu” klickst, erlaubst du uns, die Cookies zu benutzen die Geräte Bezeichnung, den Web oder ähnliche Technologien zu benutzen. Deine Settings, können in deinem Gerät bei deinem Browser geändert werden.

Für den bestimmten Zweck, berechtigten Interessen beruhen darauf, mehr als auf den Inhalt. Du kannst mehr darüber in unseren Privaten und Cookie Politik lesen.